Regional Weather Roundup
Issued by NWS Upton, NY

Current Version | Previous Version | Text Only | Print | Product List | Glossary On
Versions: 1 2 3 4 5 6 7 8 9 10 11 12 13 14 15 16 17 18 19 20 21 22 23 24 25 26 27 28 29 30 31 32 33 34 35 36 37 38 39 40 41 42 43 44 45 46 47 48 49 50
000
ASUS41 KOKX 271608
RWROKX

REGIONAL WEATHER ROUNDUP
NATIONAL WEATHER SERVICE NEW YORK NY
1200 PM EDT MON JUL 27 2015

NOTE: "FAIR" INDICATES FEW OR NO CLOUDS BELOW 12,000 FEET WITH NO
SIGNIFICANT WEATHER AND/OR OBSTRUCTIONS TO VISIBILITY.

NYZ071-072-176-178-NJZ106-104-271700-
NEW YORK CITY METRO AREA


CITY           SKY/WX    TMP DP  RH WIND       PRES   REMARKS
CENTRAL PARK   PTSUNNY   81  67  62 CALM      30.06S
LAGUARDIA APRT PTSUNNY   84  65  52 VRB6      30.02F
KENNEDY INTL   PTSUNNY   82  66  58 S8        30.05S
NEWARK/LIBERTY PTSUNNY   85  66  53 SW6       30.03S
BRNX BOT. GARD   N/A     81  68  65 NE3       30.05S
TETERBORO      MOSUNNY   83  65  54 CALM      30.01F
$$

NYZ177-179-078>081-271700-
LONG ISLAND NEW YORK

CITY           SKY/WX    TMP DP  RH WIND       PRES   REMARKS
FARMINGDALE    PTSUNNY   77  66  68 S8        30.05S
ISLIP          CLOUDY    79  66  64 VRB7      30.04R
SHIRLEY        CLOUDY    79  59  50 S9        30.06R
WESTHAMPTON    CLOUDY    81  54  39 S8        30.07S
MONTAUK POINT    N/A     76  68  76 CALM      30.07F
$$

NYZ052-065-067-271700-
HUDSON VALLEY

CITY           SKY/WX    TMP DP  RH WIND       PRES   REMARKS
WHITE PLAINS   MOSUNNY   78  69  73 SE6       30.04S
NEWBURGH       MOSUNNY   81  66  61 CALM      30.04S
MONTGOMERY     MOSUNNY   82  68  62 SW6       30.02F
POUGHKEEPSIE   SUNNY     82  66  58 SW5       30.01F
ALBANY         MOSUNNY   82  65  56 VRB5      30.01F
$$

NJZ001-105-106-008-010-013-015-019>022-104-271700-
NEW JERSEY

CITY           SKY/WX    TMP DP  RH WIND       PRES   REMARKS
NEWARK/LIBERTY PTSUNNY   85  66  53 SW6       30.03S
TETERBORO      MOSUNNY   83  65  54 CALM      30.01F
CALDWELL       MOSUNNY   80  67  64 CALM      30.03F
MORRISTOWN     MOSUNNY   82  70  65 NE3       30.04S
SOMERVILLE     MOSUNNY   81  67  62 VRB3      30.02S
SUSSEX         MOSUNNY   79  67  66 VRB5      30.04S
ANDOVER          N/A     78  68  71 W5        30.05F
TRENTON        PTSUNNY   82  69  64 VRB3      30.03S
MILLVILLE      MOSUNNY   81  69  67 VRB3      30.03F
ATLANTIC CITY  CLOUDY    79  70  74 S7        30.04F
WRIGHTSTOWN    MOSUNNY   78  69  74 S5        30.02S
TOMS RIVER     CLOUDY    81  70  69 CALM      30.04S
BELMAR         CLOUDY    81  66  61 SW3       30.04F
$$

PAZ047>061-062-071-271700-
EASTERN PENNSYLVANIA

CITY           SKY/WX    TMP DP  RH WIND       PRES   REMARKS
PHILADELPHIA   PTSUNNY   81  69  67 S5        30.03F
ALLENTOWN      CLOUDY    79  68  69 NW3       30.04S
SCRANTON       CLOUDY    75  67  76 CALM      30.05F
$$

CTZ002-004>006-009-010-012-RIZ004-006-007-MAZ004-011-015-271700-
SOUTHERN NEW ENGLAND
 IN CT

CITY           SKY/WX    TMP DP  RH WIND       PRES   REMARKS
BRADLEY INTL   PTSUNNY   80  67  64 SW10      30.02S
HARTFORD       PTSUNNY   81  70  69 S10       30.03S
DANBURY        PTSUNNY   78  66  66 VRB5      30.05F
WTRBRY/OXFORD  CLOUDY    73  64  73 S6        30.08S
BRIDGEPORT     LGT RAIN  73  69  87 E6        30.05R
MERIDEN        PTSUNNY   76  68  76 S9        30.04S
NEW HAVEN      CLOUDY    74  68  81 SE5       30.05F
CHESTER        FAIR      72  68  88 CALM      30.07F
GROTON         LGT RAIN  70  67  90 SE3       30.05S
WILLIMANTIC    CLOUDY    78  68  71 S7        30.05S

 IN RI

CITY           SKY/WX    TMP DP  RH WIND       PRES   REMARKS
PROVIDENCE     CLOUDY    70  68  93 S10       30.06F
BLOCK ISLAND   CLOUDY    72  70  94 NE3       30.08S
WESTERLY       LGT RAIN  71  69  93 E6        30.07S

 IN MA

CITY           SKY/WX    TMP DP  RH WIND       PRES   REMARKS
BOSTON         PTSUNNY   80  68  66 S10       30.02S
WORCESTER      CLOUDY    76  64  66 SW13      30.07R
WESTFIELD      MOSUNNY   81  67  62 SW7       30.02S
PROVINCETOWN   CLOUDY    75  66  73 SW10      30.05S
NANTUCKET      CLOUDY    74  68  81 S9        30.08R
$$

ANZ330-335-338-340-345-350-353-355-271700-
COASTAL MARINE OBSERVATIONS


STATION/POSITION TIME  SKY/WX   TEMP    WIND        PRES    VSBY  WAVE
                                AIR SEA DIR/SP/G                  HT/PER
                 (UTC)          (F)     (DEG/KT/KT) (MB)    (MI)  (FT/S)
NY HARB ENTRANCE 1550            74 75  170/  8/  8 1017.3          2/11
4S FIRE IS       NOT AVBL
20S FIRE ISLAND  1550            73 73   70/  4/  6 1017.7          2/11
GREAT SOUTH BAY  1500            76 79  230/  4/  6   N/A
23SW MTP         1550            74 74  250/  6/  6 1018.0          2/11
HUDSON CANYON    NOT AVBL
KINGS POINT      1500            78 69  190/  2/  4 1016.4
CENTRAL LI SOUND NOT AVBL
EASTERN LI SOUND 1500            69 69  230/  4/  8   N/A
ROBBINS REEF     1500            73     160/ 10/ 11 1016.0
$$


>>>>>>>>>>>>>>>>>>>>>>>>>>>> KEY <<<<<<<<<<<<<<<<<<<<<<<<<<<
>                                                          <
>     SKY/WX - SKY CONDITION/PRESENT WEATHER               <
>     TMP    - TEMPERATURE IN FAHRENHEIT                   <
>     DP     - DEWPOINT IN FAHRENHEIT                      <
>     RH     - RELATIVE HUMIDITY IN PERCENT                <
>     WIND   - DIRECTION AND SPEED IN MPH                  <
>     PRES   - MEAN SEA LEVEL PRESSURE IN INCHES OF HG     <
>     WCI    - WIND CHILL INDEX                            <
>     VSB    - VISIBILITY IN MILES                         <
>     HX     - HEAT INDEX                                  <
>     TC     - TEMPERATURE IN CELSIUS                      <
>     VRB    - VARIABLE WIND DIRECTION                     <
>                                                          <
>>>>>>>>>>>>>>>>>>>>>>>>>>>> KEY <<<<<<<<<<<<<<<<<<<<<<<<<<<




USA.gov is the U.S. government's official web portal to all federal, state and local government web resources and services.